Wind_Speed
26 29 31 33 36 38 40 41 41 40 39 39 39 38 38 39 40 42 43 43 44 44 45 46 47 48 49 51 52 53 54 54 54 53 53 53 52 50 49 48 47 46 46
30 32 33 35 35 35 35 35 35 34 34 34 35 36 37 38 39 41 42 43 45 46 47 48 49 50 51 52 54 54 55 56 56 55 54 54 54 53 53 52 51 50 49
33 33 33 34 33 33 33 33 33 34 34 35 36 38 40 41 43 45 47 48 49 51 52 53 54 54 55 55 56 57 58 59 59 59 59 58 58 58 58 57 56 54 53
34 33 33 33 33 33 33 34 34 35 37 38 40 41 43 45 47 48 50 52 53 53 54 55 55 56 55 55 56 57 58 59 60 61 61 62 62 62 62 61 60 58 57
34 33 33 33 33 34 35 36 38 39 41 42 43 44 45 47 48 50 52 54 56 57 58 58 59 59 60 61 61 62 62 62 62 62 62 62 62 63 63 63 62 61 60
35 34 34 35 36 37 38 40 41 42 43 45 46 47 48 51 53 55 57 59 61 62 64 65 65 66 67 68 69 70 69 68 67 66 65 64 63 63 63 63 62 62 61
36 36 37 38 39 40 41 42 42 43 46 48 50 52 54 56 59 61 63 65 66 67 69 70 72 74 75 75 76 76 76 75 74 73 71 69 68 66 65 65 64 63 62
38 39 40 41 41 42 42 44 45 47 50 53 57 60 61 62 63 66 68 69 70 72 73 74 76 78 80 81 81 81 82 81 81 80 78 76 74 72 69 67 66 66 65
40 41 41 41 42 43 45 47 50 52 55 58 62 66 70 72 72 71 72 74 75 76 77 78 80 82 85 86 87 87 87 87 87 86 85 83 81 78 74 70 67 66 67
41 41 42 43 45 47 49 52 55 59 62 65 68 71 75 79 82 82 82 83 83 83 84 85 86 89 92 94 94 94 94 93 92 90 89 87 84 81 76 72 70 68 67
41 42 44 46 49 52 55 58 62 65 68 72 75 78 80 82 85 89 90 89 90 91 92 93 95 98 100 101 101 100 100 97 93 91 90 88 85 81 76 73 74 73 72
43 46 48 51 54 57 61 65 68 71 74 77 80 83 86 88 91 93 94 94 95 96 98 99 101 103 105 104 102 99 97 93 90 88 88 90 89 84 79 76 77 78 78
47 50 53 57 60 64 67 70 72 75 78 81 84 86 89 92 96 99 101 102 102 102 103 103 105 106 105 103 99 94 88 85 84 84 85 88 91 92 89 85 82 82 82
51 55 58 62 65 68 70 73 76 79 82 85 88 91 94 97 100 103 105 108 109 109 107 104 103 101 100 97 92 87 80 76 77 78 80 82 86 90 93 92 90 87 85
56 60 63 66 68 70 73 76 79 82 86 89 93 96 98 100 102 103 104 105 108 110 108 100 95 91 91 89 85 80 75 71 71 72 72 73 76 81 86 91 93 92 91
61 64 67 69 71 73 76 80 83 86 90 94 97 99 101 103 103 103 103 102 102 103 103 95 89 84 85 86 84 80 75 71 69 69 68 66 66 68 72 77 85 91 93
65 68 70 72 74 77 80 83 86 90 93 96 99 102 103 104 103 102 100 98 96 96 96 91 86 81 80 83 83 82 79 74 71 69 68 66 64 62 62 64 68 74 81
69 71 73 74 77 80 83 86 90 93 95 99 102 103 103 102 100 97 95 92 90 88 88 85 79 74 71 72 76 79 81 80 76 73 71 69 67 64 62 60 60 62 66
72 73 75 77 80 83 86 89 92 95 98 101 102 101 99 97 94 92 90 87 83 80 79 78 74 70 66 65 68 71 74 78 79 78 76 74 72 70 67 64 62 61 61
73 75 76 79 82 85 88 91 94 98 100 100 99 97 94 91 90 89 85 80 77 74 72 72 71 68 64 61 63 64 66 69 74 78 79 79 78 76 74 71 68 66 64
74 75 78 81 84 87 91 94 98 100 99 97 94 90 87 87 87 84 80 76 73 70 68 68 66 64 60 58 57 57 57 57 60 67 75 79 80 79 78 76 74 72 70
75 77 80 83 86 90 94 97 99 98 94 91 87 84 84 85 83 78 73 71 69 67 65 64 63 61 58 55 54 51 49 47 46 49 60 66 73 76 76 76 74 72 70
76 79 83 86 89 93 96 96 95 93 89 86 83 82 83 82 77 72 68 65 62 60 60 61 60 58 56 53 51 47 43 40 35 33 42 46 54 61 64 65 64 63 62
78 82 86 89 92 94 95 94 91 87 83 81 81 83 82 77 71 68 64 60 56 54 54 56 56 55 53 51 48 42 35 27 22 21 25 27 33 40 44 46 48 50 52
81 85 89 92 93 93 92 89 86 81 78 78 80 81 77 71 67 64 61 57 53 51 50 51 51 50 49 46 41 33 25 17 11 11 14 15 18 23 27 30 34 38 42
85 89 92 93 93 90 87 83 80 78 77 77 79 76 71 66 62 59 57 55 52 49 46 43 42 42 41 36 31 25 18 11 6 5 9 11 12 15 17 22 26 30 34
Wind_Direction
287 285 283 282 282 282 283 284 285 286 287 288 288 287 287 287 286 286 286 286 287 286 285 285 284 284 283 283 282 281 280 280 279 278 277 277 276 275 275 274 274 274 274
287 285 284 284 284 285 285 286 288 289 290 290 290 290 291 290 289 288 288 288 287 287 287 286 286 285 284 284 283 282 282 281 281 280 279 277 276 275 274 274 273 273 272
292 291 290 289 288 288 288 288 289 290 291 291 292 293 293 293 293 293 292 291 290 289 289 288 287 285 285 284 284 283 283 282 281 280 279 277 276 275 275 274 273 272 270
295 293 291 291 290 290 290 291 292 293 293 294 294 295 295 296 296 296 296 295 294 293 291 290 288 286 285 285 284 283 283 282 281 280 279 278 277 276 275 275 274 272 270
294 292 291 290 289 290 292 293 295 296 296 297 297 298 299 299 298 298 297 296 295 294 292 290 288 288 287 286 286 285 284 283 281 280 279 277 276 276 275 274 273 272 270
295 293 293 292 294 295 297 298 298 299 299 299 300 300 301 300 300 299 298 296 294 293 291 290 288 287 286 285 284 284 283 282 280 279 278 276 275 273 272 272 271 270 269
296 297 298 299 300 300 300 300 300 301 301 302 301 301 301 300 299 298 296 295 293 291 289 288 287 286 285 284 284 283 282 281 279 277 276 274 273 271 270 269 268 267 266
300 301 302 301 301 300 300 300 301 301 302 302 302 301 300 299 297 297 295 293 292 290 289 288 287 286 285 284 283 282 281 279 278 276 275 273 271 269 268 266 265 264 263
301 300 300 299 299 298 298 299 299 300 301 301 302 302 301 300 298 296 295 293 291 290 288 287 286 285 283 282 281 280 278 276 275 274 272 271 269 268 266 264 262 261 260
298 297 297 296 295 296 297 298 299 300 301 302 302 302 301 301 300 299 298 296 294 292 290 288 286 284 283 282 280 278 276 274 272 270 268 267 265 263 262 260 259 258 256
294 293 293 294 296 298 300 301 303 304 304 304 303 303 301 300 299 299 298 297 295 294 292 290 289 287 285 283 282 279 276 274 269 265 262 260 259 258 257 255 254 254 253
293 294 297 299 301 302 304 305 305 305 305 304 303 303 302 301 299 298 297 295 294 293 292 292 290 288 286 284 282 279 277 273 268 262 257 254 252 251 250 249 249 250 250
298 300 303 304 305 305 305 305 305 305 305 304 303 303 302 301 301 300 299 298 297 295 295 294 292 290 287 284 282 279 276 272 267 262 257 253 250 248 247 245 245 246 247
303 305 306 306 305 305 305 306 306 305 305 305 305 305 305 304 304 303 302 301 300 298 296 295 292 290 288 286 283 281 277 272 267 263 260 255 252 249 247 245 243 242 243
306 306 306 305 305 306 306 307 306 306 307 307 308 308 307 307 306 305 303 301 300 298 296 294 292 289 287 285 284 282 277 272 268 264 262 259 255 252 250 248 246 244 242
306 306 306 306 307 307 307 307 307 308 310 310 309 309 308 307 306 304 302 301 299 298 297 296 293 289 284 282 281 278 275 271 266 262 259 258 256 254 253 251 250 248 247
307 306 306 307 307 307 307 308 310 311 311 311 311 310 309 308 306 304 303 302 301 300 299 298 296 292 286 281 277 274 271 268 264 259 256 254 253 253 253 253 252 252 251
307 307 307 307 307 308 309 310 312 312 312 313 312 311 309 307 306 305 305 305 303 301 300 299 298 296 292 287 280 274 269 265 261 257 254 252 251 250 251 251 253 254 254
307 307 307 308 308 310 311 312 313 314 315 314 313 311 309 308 308 308 308 306 304 302 301 301 300 299 298 294 287 280 272 266 260 256 253 251 250 249 249 250 252 254 255
307 307 308 309 310 312 313 314 315 316 316 315 312 310 309 310 311 311 309 307 304 303 302 301 301 302 301 297 292 286 277 269 262 256 253 251 250 250 250 251 252 254 256
307 308 309 311 313 314 315 316 317 317 316 314 312 310 311 312 313 312 310 307 305 304 303 303 304 305 305 302 297 292 285 276 265 258 253 251 251 252 252 253 254 255 256
308 310 312 314 315 316 317 317 317 316 315 313 312 312 314 315 314 312 309 306 306 306 305 305 306 306 306 304 302 299 294 286 274 262 257 253 252 252 254 255 256 255 253
310 312 314 315 317 317 317 317 317 315 314 313 313 315 317 316 314 311 308 307 306 306 306 307 308 307 306 306 305 304 301 295 286 270 258 254 252 253 254 254 253 250 246
313 314 315 316 317 317 318 317 316 314 314 314 316 318 319 317 314 311 309 308 308 308 308 308 309 308 308 308 308 309 307 301 291 276 264 255 250 252 252 251 248 243 238
314 315 316 317 318 318 317 316 314 314 315 316 319 320 319 317 314 313 312 311 311 310 310 310 309 308 308 310 311 313 314 312 296 272 267 262 252 250 248 246 241 236 230
315 316 317 318 318 317 316 314 314 315 316 319 320 320 319 317 316 314 313 312 312 312 312 310 308 306 308 310 313 317 322 326 311 264 265 260 250 246 240 237 233 228 223
Height
5808 5805 5802 5800 5797 5795 5792 5788 5785 5782 5779 5776 5773 5770 5768 5765 5763 5760 5759 5756 5752 5750 5747 5744 5742 5739 5737 5734 5732 5730 5727 5725 5724 5722 5720 5719 5718 5717 5716 5715 5715 5715 5714
5800 5797 5794 5792 5789 5786 5782 5779 5776 5774 5771 5768 5765 5762 5760 5757 5755 5752 5749 5747 5744 5740 5737 5734 5731 5728 5725 5722 5720 5717 5715 5713 5711 5709 5707 5706 5704 5703 5702 5701 5701 5701 5701
5794 5790 5787 5783 5780 5777 5774 5772 5769 5767 5764 5761 5758 5755 5752 5749 5746 5743 5740 5737 5734 5730 5726 5723 5719 5716 5712 5709 5706 5704 5701 5699 5697 5695 5693 5692 5690 5689 5688 5687 5687 5687 5686
5786 5783 5780 5776 5773 5770 5767 5765 5762 5759 5756 5753 5750 5747 5744 5741 5737 5733 5730 5726 5722 5719 5715 5710 5706 5702 5699 5696 5693 5690 5687 5684 5682 5680 5679 5677 5676 5675 5674 5673 5672 5672 5672
5779 5776 5773 5769 5766 5763 5760 5757 5754 5751 5747 5744 5741 5738 5735 5731 5728 5724 5719 5714 5710 5705 5701 5697 5693 5689 5684 5681 5677 5674 5672 5669 5667 5664 5663 5662 5661 5660 5659 5658 5658 5658 5658
5772 5769 5766 5763 5760 5757 5753 5750 5746 5742 5738 5735 5732 5728 5725 5721 5716 5712 5707 5702 5697 5692 5686 5682 5677 5673 5669 5664 5660 5656 5654 5652 5650 5648 5646 5645 5644 5642 5642 5641 5642 5642 5643
5765 5762 5759 5756 5752 5749 5745 5741 5737 5733 5729 5724 5720 5717 5714 5709 5703 5698 5693 5688 5682 5677 5671 5665 5660 5655 5650 5645 5641 5637 5633 5631 5629 5628 5627 5626 5625 5624 5624 5624 5624 5625 5626
5757 5754 5751 5747 5743 5739 5735 5731 5727 5723 5718 5712 5707 5702 5699 5697 5691 5684 5677 5671 5666 5660 5654 5648 5641 5635 5629 5624 5621 5616 5611 5607 5605 5605 5605 5605 5604 5604 5604 5604 5605 5606 5607
5750 5746 5742 5738 5734 5730 5726 5721 5716 5711 5706 5700 5693 5685 5679 5675 5672 5670 5663 5656 5649 5642 5636 5629 5622 5614 5607 5600 5597 5593 5587 5581 5578 5578 5578 5580 5581 5582 5583 5584 5585 5586 5587
5741 5737 5733 5729 5725 5720 5715 5709 5704 5698 5691 5685 5678 5670 5661 5652 5645 5642 5639 5631 5625 5619 5612 5606 5599 5590 5581 5573 5569 5564 5559 5555 5550 5548 5549 5551 5553 5556 5558 5560 5562 5563 5565
5732 5728 5724 5719 5714 5708 5702 5696 5689 5682 5675 5667 5659 5650 5642 5633 5624 5617 5613 5608 5599 5591 5584 5577 5569 5560 5550 5540 5533 5528 5524 5524 5521 5519 5518 5520 5523 5527 5530 5533 5535 5538 5541
5723 5718 5713 5708 5702 5696 5689 5682 5674 5666 5658 5649 5639 5629 5619 5610 5600 5591 5586 5582 5575 5569 5558 5549 5538 5526 5516 5506 5498 5491 5489 5488 5487 5486 5487 5489 5492 5496 5500 5504 5508 5512 5516
5713 5707 5702 5696 5689 5682 5675 5666 5658 5649 5640 5630 5620 5609 5598 5587 5575 5562 5552 5546 5542 5539 5530 5521 5505 5491 5478 5469 5464 5459 5457 5455 5453 5453 5455 5458 5463 5467 5472 5477 5481 5486 5491
5702 5696 5690 5683 5676 5667 5659 5650 5640 5631 5620 5610 5599 5587 5575 5562 5548 5533 5518 5505 5497 5497 5496 5491 5476 5459 5442 5434 5431 5428 5427 5426 5424 5424 5426 5430 5434 5439 5444 5450 5455 5460 5466
5690 5684 5676 5668 5660 5651 5641 5632 5622 5611 5600 5588 5576 5563 5550 5536 5522 5506 5490 5472 5455 5444 5449 5455 5447 5435 5415 5405 5403 5400 5399 5400 5399 5399 5400 5402 5406 5411 5415 5421 5427 5433 5439
5677 5669 5660 5651 5642 5633 5623 5613 5602 5591 5579 5566 5553 5540 5526 5511 5496 5480 5464 5448 5429 5409 5400 5409 5410 5406 5393 5382 5377 5373 5372 5373 5375 5376 5377 5379 5382 5385 5390 5395 5400 5405 5411
5661 5653 5644 5635 5625 5615 5604 5593 5582 5571 5558 5545 5530 5516 5500 5483 5468 5452 5436 5421 5406 5388 5371 5371 5371 5370 5362 5353 5348 5345 5343 5344 5348 5351 5353 5356 5359 5363 5367 5372 5376 5381 5387
5646 5637 5627 5617 5607 5596 5585 5574 5563 5551 5537 5522 5506 5490 5473 5456 5440 5425 5410 5396 5382 5367 5350 5341 5341 5338 5333 5325 5318 5314 5313 5314 5319 5324 5328 5332 5337 5342 5346 5350 5355 5361 5366
5630 5620 5610 5599 5589 5578 5566 5555 5543 5530 5514 5498 5480 5463 5447 5430 5416 5401 5387 5373 5359 5346 5332 5320 5314 5312 5308 5301 5290 5285 5282 5283 5288 5294 5300 5306 5312 5317 5323 5329 5335 5341 5346
5614 5604 5593 5582 5571 5559 5547 5534 5522 5507 5492 5475 5456 5439 5423 5408 5393 5379 5365 5351 5338 5327 5316 5303 5294 5288 5284 5277 5266 5257 5253 5254 5256 5263 5269 5277 5284 5291 5299 5306 5314 5320 5326
5598 5587 5576 5565 5552 5539 5526 5513 5500 5486 5469 5452 5435 5419 5403 5388 5373 5357 5343 5330 5318 5308 5297 5287 5277 5269 5262 5254 5245 5236 5229 5228 5230 5234 5238 5248 5257 5266 5273 5281 5288 5296 5303
5581 5570 5558 5546 5533 5520 5506 5492 5477 5462 5446 5429 5414 5400 5385 5369 5354 5340 5326 5313 5301 5289 5279 5269 5261 5251 5244 5235 5227 5220 5213 5208 5210 5215 5213 5223 5231 5239 5247 5254 5262 5270 5277
5565 5553 5541 5528 5515 5501 5487 5471 5455 5439 5423 5407 5393 5379 5365 5350 5334 5322 5311 5300 5289 5277 5265 5254 5244 5236 5228 5221 5213 5207 5201 5196 5194 5196 5196 5204 5210 5216 5223 5230 5238 5245 5255
5548 5536 5524 5511 5498 5483 5466 5450 5435 5421 5406 5390 5374 5359 5344 5331 5316 5304 5294 5285 5275 5265 5254 5243 5232 5222 5214 5208 5201 5196 5191 5188 5187 5186 5187 5191 5196 5200 5206 5212 5219 5227 5238
5532 5519 5506 5493 5479 5463 5446 5430 5415 5402 5389 5375 5359 5343 5326 5313 5300 5287 5276 5268 5261 5253 5244 5233 5222 5212 5204 5198 5192 5188 5185 5183 5183 5182 5183 5184 5188 5192 5197 5202 5208 5216 5227
5515 5502 5488 5473 5458 5443 5427 5412 5395 5382 5371 5359 5345 5329 5312 5298 5285 5273 5262 5253 5246 5240 5233 5225 5215 5205 5198 5192 5187 5183 5181 5180 5180 5180 5181 5182 5185 5188 5193 5197 5203 5210 5221